Weather History for Hurghada, Egypt

Change the Weather History Date:

Thursday, November 1, 2012

  Actual Average Record
Temperature  
Mean Temperature 80 °F -  
Max Temperature 92 °F 77 °F 95 °F (2006)
Min Temperature 68 °F 62 °F 62 °F (2001)
Cooling Degree Days 15    
Growing Degree Days 30 (Base 50)    
Moisture  
Dew Point 60 °F    
Average Humidity 54    
Maximum Humidity 78    
Minimum Humidity 28    
Precipitation  
Precipitation 0.00 in - - ()
Sea Level Pressure  
Sea Level Pressure 29.89 in    
Wind  
Wind Speed 6 mph ()    
Max Wind Speed 12 mph    
Max Gust Speed -    
Visibility 6.0 miles    
Events      
Averages and records for this station are not official NWS values.
T = Trace of Precipitation, MM = Missing Value Source: Averaged Metar Reports

Daily Weather History Graph

Daily Weather History Graph

Search for Another Location

Airport:

Trip Planner

Search our weather history database for the weather conditions in past years. The results will help you decide how hot, cold, wet, or windy it might be!

Date:

Astronomy

Nov. 01, 2012 Rise Set
Actual Time 5:55 AM EET 5:01 PM EET
Civil Twilight 5:31 AM EET 5:25 PM EET
Nautical Twilight 5:03 AM EET 5:52 PM EET
Astronomical Twilight 4:36 AM EET 6:20 PM EET
Moon 6:53 PM EET (11/1) 7:59 AM EET (11/1)
Length of Visible Light 11h 54m
Length of Day
11h 06m
Waning Gibbous, 94% of the Moon is Illuminated
Nov 1
Waning Gibbous
Nov 7
Last Quarter
Nov 14
New
Nov 20
First Quarter
Nov 28
Full

Hourly Weather History & Observations

Time (EET) Temp. Heat Index Dew Point Humidity Pressure Visibility Wind Dir Wind Speed Gust Speed Precip Events Conditions
12:00 AM 73.4 °F - 62.6 °F 69% 29.86 in - WNW 4.6 mph - N/A   Clear
1:00 AM 71.6 °F - 60.8 °F 69% 29.86 in - WNW 8.1 mph - N/A   Clear
2:00 AM 71 °F - 56 °F 50% 29.88 in 6 mi WNW 6.9 mph - -  
2:00 AM 69.8 °F - 57.2 °F 64% 29.86 in - WNW 6.9 mph - N/A   Clear
3:00 AM 69.8 °F - 53.6 °F 56% 29.86 in - WNW 6.9 mph - N/A   Clear
4:00 AM 68.0 °F - 53.6 °F 60% 29.86 in - WNW 10.4 mph - N/A   Clear
5:00 AM 69.8 °F - 53.6 °F 56% 29.89 in - NNW 6.9 mph - N/A   Clear
6:00 AM 68.0 °F - 51.8 °F 56% 29.89 in - NNW 6.9 mph - N/A   Clear
7:00 AM 73.4 °F - 53.6 °F 50% 29.92 in - NW 6.9 mph - N/A   Clear
8:00 AM 78 °F - 56 °F 35% 29.95 in 6 mi NW 9.2 mph - -  
8:00 AM 78.8 °F - 55.4 °F 44% 29.95 in - NW 9.2 mph - N/A   Clear
9:00 AM 80.6 °F 81.1 °F 59.0 °F 48% 29.95 in - NNW 11.5 mph - N/A   Clear
10:00 AM 82.4 °F 82.5 °F 59.0 °F 45% 29.95 in - NNW 9.2 mph - N/A   Clear
11:00 AM 86.0 °F 86.1 °F 60.8 °F 43% 29.92 in - North 9.2 mph - N/A   Clear
12:00 PM 87.8 °F 88.5 °F 62.6 °F 43% 29.89 in - North 6.9 mph - N/A   Clear
1:00 PM 89.6 °F 89.5 °F 60.8 °F 38% 29.86 in - North 5.8 mph - N/A   Clear
2:00 PM 90 °F - 61 °F 28% 29.87 in 6 mi NE 3.5 mph - -   Clear
3:00 PM 91.4 °F 91.4 °F 60.8 °F 36% 29.83 in - ENE 3.5 mph - N/A   Clear
4:00 PM 86.0 °F 88.2 °F 66.2 °F 51% 29.83 in - ENE 6.9 mph - N/A   Clear
8:00 PM 81 °F - 72 °F 68% 29.88 in 6 mi Calm Calm - -  
8:00 PM 80.6 °F 84.6 °F 71.6 °F 74% 29.86 in - Calm Calm - N/A   Clear
9:00 PM 77.0 °F - 69.8 °F 78% 29.89 in - Calm Calm - N/A   Clear
10:00 PM 77.0 °F - 66.2 °F 69% 29.89 in - Calm Calm - N/A   Clear
11:00 PM 75.2 °F - 62.6 °F 65% 29.89 in - Calm Calm - N/A   Clear